Time,TemperatureF,DewpointF,PressureIn,WindDirection,WindDirectionDegrees,WindSpeedMPH,WindSpeedGustMPH,Humidity,HourlyPrecipIn,Conditions,Clouds,dailyrainin,SoftwareType,DateUTC
2013-05-03 00:01:00,52.5,44.1,30.37,SSW,207,0.0,0.0,73,0.00,,,0.00,Wunderground v.1.15,2013-05-03 04:01:00,
2013-05-03 00:02:00,52.4,44.0,30.37,SSW,207,0.0,0.0,73,0.00,,,0.00,Wunderground v.1.15,2013-05-03 04:02:00,
2013-05-03 00:04:00,52.4,44.0,30.37,SSW,207,0.0,0.0,73,0.00,,,0.00,Wunderground v.1.15,2013-05-03 04:04:00,
2013-05-03 00:05:00,52.3,43.9,30.37,SSW,207,0.0,0.0,73,0.00,,,0.00,Wunderground v.1.15,2013-05-03 04:05:00,
2013-05-03 00:07:00,52.2,44.2,30.37,SSW,207,0.0,0.0,74,0.00,,,0.00,Wunderground v.1.15,2013-05-03 04:07:00,
2013-05-03 00:12:00,52.2,44.2,30.38,ESE,108,1.0,1.0,74,0.00,,,0.00,Wunderground v.1.15,2013-05-03 04:12:00,
2013-05-03 00:18:00,52.3,43.9,30.38,East,93,1.0,4.0,73,0.00,,,0.00,Wunderground v.1.15,2013-05-03 04:18:00,
2013-05-03 00:23:00,52.8,44.4,30.38,ENE,74,1.0,2.0,73,0.00,,,0.00,Wunderground v.1.15,2013-05-03 04:23:00,
2013-05-03 00:28:00,53.2,44.8,30.39,East,80,2.0,2.0,73,0.00,,,0.00,Wunderground v.1.15,2013-05-03 04:28:00,
2013-05-03 00:33:00,53.6,44.8,30.38,East,88,2.0,4.0,72,0.00,,,0.00,Wunderground v.1.15,2013-05-03 04:33:00,
2013-05-03 00:38:00,53.9,44.7,30.39,East,98,2.0,4.0,71,0.00,,,0.00,Wunderground v.1.15,2013-05-03 04:38:00,
2013-05-03 00:44:00,54.0,44.1,30.39,East,82,2.0,4.0,69,0.00,,,0.00,Wunderground v.1.15,2013-05-03 04:44:00,
2013-05-03 00:49:00,54.2,44.2,30.38,East,79,3.0,4.0,69,0.00,,,0.00,Wunderground v.1.15,2013-05-03 04:49:00,
2013-05-03 00:54:00,54.2,44.2,30.39,East,92,3.0,4.0,69,0.00,,,0.00,Wunderground v.1.15,2013-05-03 04:54:00,
2013-05-03 01:00:00,54.2,44.6,30.39,ESE,109,2.0,3.0,70,0.00,,,0.00,Wunderground v.1.15,2013-05-03 05:00:00,
2013-05-03 01:06:00,54.1,44.9,30.39,ESE,123,2.0,3.0,71,0.00,,,0.00,Wunderground v.1.15,2013-05-03 05:06:00,
2013-05-03 01:11:00,53.9,45.1,30.39,ESE,105,2.0,3.0,72,0.00,,,0.00,Wunderground v.1.15,2013-05-03 05:11:00,
2013-05-03 01:17:00,53.7,45.2,30.39,East,101,3.0,4.0,73,0.00,,,0.00,Wunderground v.1.15,2013-05-03 05:17:00,
2013-05-03 01:22:00,53.3,45.2,30.39,NE,53,3.0,4.0,74,0.00,,,0.00,Wunderground v.1.15,2013-05-03 05:22:00,
2013-05-03 01:28:00,53.1,43.9,30.39,ENE,57,4.0,7.0,71,0.00,,,0.00,Wunderground v.1.15,2013-05-03 05:28:00,
2013-05-03 01:33:00,53.0,44.2,30.39,NE,48,5.0,11.0,72,0.00,,,0.00,Wunderground v.1.15,2013-05-03 05:33:00,
2013-05-03 01:38:00,52.9,44.1,30.39,SE,128,5.0,11.0,72,0.00,,,0.00,Wunderground v.1.15,2013-05-03 05:38:00,
2013-05-03 01:43:00,52.8,44.0,30.39,East,92,5.0,5.0,72,0.00,,,0.00,Wunderground v.1.15,2013-05-03 05:43:00,
2013-05-03 01:48:00,52.6,43.8,30.39,South,186,4.0,5.0,72,0.00,,,0.00,Wunderground v.1.15,2013-05-03 05:48:00,
2013-05-03 01:53:00,52.5,43.7,30.39,East,97,3.0,7.0,72,0.00,,,0.00,Wunderground v.1.15,2013-05-03 05:53:00,
2013-05-03 01:58:00,52.4,43.6,30.39,East,86,4.0,10.0,72,0.00,,,0.00,Wunderground v.1.15,2013-05-03 05:58:00,
2013-05-03 02:04:00,52.2,43.8,30.40,NE,53,4.0,8.0,73,0.00,,,0.00,Wunderground v.1.15,2013-05-03 06:04:00,
2013-05-03 02:09:00,52.2,43.8,30.40,ESE,107,3.0,8.0,73,0.00,,,0.00,Wunderground v.1.15,2013-05-03 06:09:00,
2013-05-03 02:14:00,52.1,43.3,30.40,SSE,166,3.0,7.0,72,0.00,,,0.00,Wunderground v.1.15,2013-05-03 06:14:00,
2013-05-03 02:19:00,52.0,43.3,30.40,East,98,3.0,7.0,72,0.00,,,0.00,Wunderground v.1.15,2013-05-03 06:19:00,
2013-05-03 02:24:00,51.9,43.2,30.39,ESE,117,4.0,6.0,72,0.00,,,0.00,Wunderground v.1.15,2013-05-03 06:24:00,
2013-05-03 02:29:00,51.9,42.4,30.39,SE,134,3.0,6.0,70,0.00,,,0.00,Wunderground v.1.15,2013-05-03 06:29:00,
2013-05-03 02:34:00,51.9,42.0,30.39,East,81,3.0,4.0,69,0.00,,,0.00,Wunderground v.1.15,2013-05-03 06:34:00,
2013-05-03 02:40:00,51.9,41.7,30.39,East,79,3.0,4.0,68,0.00,,,0.00,Wunderground v.1.15,2013-05-03 06:40:00,
2013-05-03 02:45:00,51.9,41.3,30.40,ESE,114,3.0,7.0,67,0.00,,,0.00,Wunderground v.1.15,2013-05-03 06:45:00,
2013-05-03 02:50:00,51.9,41.3,30.40,ESE,107,2.0,2.0,67,0.00,,,0.00,Wunderground v.1.15,2013-05-03 06:50:00,
2013-05-03 02:55:00,51.9,41.3,30.40,ESE,119,1.0,2.0,67,0.00,,,0.00,Wunderground v.1.15,2013-05-03 06:55:00,
2013-05-03 03:00:00,51.9,41.3,30.40,East,91,1.0,2.0,67,0.00,,,0.00,Wunderground v.1.15,2013-05-03 07:00:00,
2013-05-03 03:06:00,51.8,40.8,30.40,SE,142,2.0,6.0,66,0.00,,,0.00,Wunderground v.1.15,2013-05-03 07:06:00,
2013-05-03 03:11:00,51.8,40.8,30.40,ESE,107,2.0,3.0,66,0.00,,,0.00,Wunderground v.1.15,2013-05-03 07:11:00,
2013-05-03 03:16:00,51.7,40.7,30.40,ESE,113,2.0,3.0,66,0.00,,,0.00,Wunderground v.1.15,2013-05-03 07:16:00,
2013-05-03 03:21:00,51.6,40.2,30.40,ENE,62,2.0,2.0,65,0.00,,,0.00,Wunderground v.1.15,2013-05-03 07:21:00,
2013-05-03 03:27:00,51.4,40.0,30.40,ENE,76,2.0,4.0,65,0.00,,,0.00,Wunderground v.1.15,2013-05-03 07:27:00,
2013-05-03 03:32:00,51.3,39.9,30.40,East,85,3.0,3.0,65,0.00,,,0.00,Wunderground v.1.15,2013-05-03 07:32:00,
2013-05-03 03:37:00,51.1,39.7,30.40,ENE,74,2.0,3.0,65,0.00,,,0.00,Wunderground v.1.15,2013-05-03 07:37:00,
2013-05-03 03:42:00,51.0,39.6,30.40,ESE,117,1.0,2.0,65,0.00,,,0.00,Wunderground v.1.15,2013-05-03 07:42:00,
2013-05-03 03:47:00,51.0,39.2,30.41,NE,40,1.0,3.0,64,0.00,,,0.00,Wunderground v.1.15,2013-05-03 07:47:00,
2013-05-03 03:52:00,50.9,39.1,30.41,SE,130,1.0,2.0,64,0.00,,,0.00,Wunderground v.1.15,2013-05-03 07:52:00,
2013-05-03 05:51:00,45.8,40.3,30.43,East,90,0.0,0.0,81,0.00,,,0.00,Wunderground v.1.15,2013-05-03 09:51:00,
2013-05-03 05:56:00,45.5,40.3,30.43,East,90,0.0,0.0,82,0.00,,,0.00,Wunderground v.1.15,2013-05-03 09:56:00,
2013-05-03 06:02:00,45.2,40.3,30.43,East,90,0.0,0.0,83,0.00,,,0.00,Wunderground v.1.15,2013-05-03 10:02:00,
2013-05-03 06:07:00,45.2,39.7,30.43,ENE,66,0.0,1.0,81,0.00,,,0.00,Wunderground v.1.15,2013-05-03 10:07:00,
2013-05-03 06:13:00,45.5,40.3,30.43,ENE,66,0.0,0.0,82,0.00,,,0.00,Wunderground v.1.15,2013-05-03 10:13:00,
2013-05-03 06:19:00,45.7,40.5,30.43,ENE,66,0.0,0.0,82,0.00,,,0.00,Wunderground v.1.15,2013-05-03 10:19:00,
2013-05-03 06:24:00,45.8,40.3,30.43,ENE,66,0.0,0.0,81,0.00,,,0.00,Wunderground v.1.15,2013-05-03 10:24:00,
2013-05-03 06:29:00,46.0,40.2,30.43,ENE,66,0.0,0.0,80,0.00,,,0.00,Wunderground v.1.15,2013-05-03 10:29:00,
2013-05-03 06:34:00,46.6,40.1,30.43,ENE,65,0.0,1.0,78,0.00,,,0.00,Wunderground v.1.15,2013-05-03 10:34:00,
2013-05-03 06:39:00,47.3,39.1,30.44,ENE,59,0.0,1.0,73,0.00,,,0.00,Wunderground v.1.15,2013-05-03 10:39:00,
2013-05-03 06:44:00,47.9,39.3,30.43,ENE,59,0.0,0.0,72,0.00,,,0.00,Wunderground v.1.15,2013-05-03 10:44:00,
2013-05-03 06:49:00,48.4,39.1,30.44,ENE,59,0.0,0.0,70,0.00,,,0.00,Wunderground v.1.15,2013-05-03 10:49:00,
2013-05-03 06:54:00,49.0,38.5,30.43,North,355,1.0,3.0,67,0.00,,,0.00,Wunderground v.1.15,2013-05-03 10:54:00,
2013-05-03 07:00:00,49.4,36.9,30.44,North,360,2.0,2.0,62,0.00,,,0.00,Wunderground v.1.15,2013-05-03 11:00:00,
2013-05-03 07:06:00,50.0,36.7,30.44,NE,44,3.0,4.0,60,0.00,,,0.00,Wunderground v.1.15,2013-05-03 11:06:00,
2013-05-03 07:11:00,50.5,35.8,30.43,ESE,107,3.0,6.0,57,0.00,,,0.00,Wunderground v.1.15,2013-05-03 11:11:00,
2013-05-03 07:16:00,50.9,35.7,30.43,NNE,14,3.0,6.0,56,0.00,,,0.00,Wunderground v.1.15,2013-05-03 11:16:00,
2013-05-03 07:22:00,51.1,35.9,30.43,East,92,3.0,3.0,56,0.00,,,0.00,Wunderground v.1.15,2013-05-03 11:22:00,
2013-05-03 07:28:00,51.4,35.8,30.43,NNE,24,3.0,6.0,55,0.00,,,0.00,Wunderground v.1.15,2013-05-03 11:28:00,
2013-05-03 07:34:00,51.6,35.5,30.43,East,88,4.0,8.0,54,0.00,,,0.00,Wunderground v.1.15,2013-05-03 11:34:00,
2013-05-03 07:39:00,51.6,35.5,30.43,ENE,64,4.0,8.0,54,0.00,,,0.00,Wunderground v.1.15,2013-05-03 11:39:00,
2013-05-03 07:44:00,51.8,35.7,30.43,NE,44,4.0,8.0,54,0.00,,,0.00,Wunderground v.1.15,2013-05-03 11:44:00,
2013-05-03 07:49:00,52.0,35.4,30.43,East,90,4.0,8.0,53,0.00,,,0.00,Wunderground v.1.15,2013-05-03 11:49:00,
2013-05-03 07:54:00,52.5,35.4,30.43,NE,39,3.0,5.0,52,0.00,,,0.00,Wunderground v.1.15,2013-05-03 11:54:00,
2013-05-03 07:59:00,52.7,35.1,30.43,ENE,78,3.0,5.0,51,0.00,,,0.00,Wunderground v.1.15,2013-05-03 11:59:00,
2013-05-03 08:04:00,52.6,35.0,30.43,NE,54,5.0,10.0,51,0.00,,,0.00,Wunderground v.1.15,2013-05-03 12:04:00,
2013-05-03 08:09:00,52.9,34.8,30.43,North,355,5.0,10.0,50,0.00,,,0.00,Wunderground v.1.15,2013-05-03 12:09:00,
2013-05-03 08:14:00,53.0,34.3,30.43,NE,46,5.0,11.0,49,0.00,,,0.00,Wunderground v.1.15,2013-05-03 12:14:00,
2013-05-03 08:19:00,52.9,34.2,30.43,ENE,68,6.0,13.0,49,0.00,,,0.00,Wunderground v.1.15,2013-05-03 12:19:00,
2013-05-03 08:24:00,53.4,34.2,30.43,NE,35,5.0,7.0,48,0.00,,,0.00,Wunderground v.1.15,2013-05-03 12:24:00,
2013-05-03 08:29:00,53.5,34.8,30.44,NE,44,5.0,9.0,49,0.00,,,0.00,Wunderground v.1.15,2013-05-03 12:29:00,
2013-05-03 08:34:00,54.0,34.7,30.44,NNE,24,4.0,5.0,48,0.00,,,0.00,Wunderground v.1.15,2013-05-03 12:34:00,
2013-05-03 08:40:00,54.6,34.2,30.44,East,81,3.0,9.0,46,0.00,,,0.00,Wunderground v.1.15,2013-05-03 12:40:00,
2013-05-03 08:45:00,54.5,34.1,30.44,ESE,102,3.0,9.0,46,0.00,,,0.00,Wunderground v.1.15,2013-05-03 12:45:00,
2013-05-03 08:50:00,54.9,34.5,30.44,East,93,3.0,4.0,46,0.00,,,0.00,Wunderground v.1.15,2013-05-03 12:50:00,
2013-05-03 08:55:00,55.2,34.2,30.44,North,10,3.0,11.0,45,0.00,,,0.00,Wunderground v.1.15,2013-05-03 12:55:00,
2013-05-03 09:00:00,54.6,33.1,30.44,East,80,5.0,5.0,44,0.00,,,0.00,Wunderground v.1.15,2013-05-03 13:00:00,
2013-05-03 09:06:00,54.8,33.8,30.43,NE,38,5.0,5.0,45,0.00,,,0.00,Wunderground v.1.15,2013-05-03 13:06:00,
2013-05-03 09:11:00,55.4,34.4,30.43,ENE,69,3.0,4.0,45,0.00,,,0.00,Wunderground v.1.15,2013-05-03 13:11:00,
2013-05-03 09:16:00,55.6,34.6,30.43,SE,139,4.0,10.0,45,0.00,,,0.00,Wunderground v.1.15,2013-05-03 13:16:00,
2013-05-03 09:21:00,55.3,34.3,30.43,SE,126,5.0,7.0,45,0.00,,,0.00,Wunderground v.1.15,2013-05-03 13:21:00,
2013-05-03 09:26:00,55.6,35.1,30.43,East,101,4.0,7.0,46,0.00,,,0.00,Wunderground v.1.15,2013-05-03 13:26:00,
2013-05-03 09:32:00,55.9,34.3,30.43,South,171,4.0,4.0,44,0.00,,,0.00,Wunderground v.1.15,2013-05-03 13:32:00,
2013-05-03 09:38:00,56.3,33.5,30.43,East,95,4.0,8.0,42,0.00,,,0.00,Wunderground v.1.15,2013-05-03 13:38:00,
2013-05-03 09:44:00,56.0,34.4,30.43,East,100,4.0,7.0,44,0.00,,,0.00,Wunderground v.1.15,2013-05-03 13:44:00,
2013-05-03 09:49:00,56.0,34.4,30.43,SE,132,4.0,7.0,44,0.00,,,0.00,Wunderground v.1.15,2013-05-03 13:49:00,
2013-05-03 09:54:00,55.9,33.7,30.43,ENE,67,5.0,8.0,43,0.00,,,0.00,Wunderground v.1.15,2013-05-03 13:54:00,
2013-05-03 09:59:00,55.6,33.4,30.43,NNE,27,6.0,12.0,43,0.00,,,0.00,Wunderground v.1.15,2013-05-03 13:59:00,
2013-05-03 10:05:00,56.0,34.4,30.43,SE,127,6.0,8.0,44,0.00,,,0.00,Wunderground v.1.15,2013-05-03 14:05:00,
2013-05-03 10:10:00,56.4,34.7,30.43,NNE,13,4.0,4.0,44,0.00,,,0.00,Wunderground v.1.15,2013-05-03 14:10:00,
2013-05-03 10:15:00,56.8,34.5,30.43,SSE,167,3.0,4.0,43,0.00,,,0.00,Wunderground v.1.15,2013-05-03 14:15:00,
2013-05-03 10:21:00,56.8,33.3,30.43,North,355,4.0,5.0,41,0.00,,,0.00,Wunderground v.1.15,2013-05-03 14:21:00,
2013-05-03 10:27:00,57.3,33.8,30.43,ENE,61,5.0,8.0,41,0.00,,,0.00,Wunderground v.1.15,2013-05-03 14:27:00,
2013-05-03 10:32:00,57.6,34.1,30.43,ESE,115,4.0,7.0,41,0.00,,,0.00,Wunderground v.1.15,2013-05-03 14:32:00,
2013-05-03 10:38:00,58.1,33.9,30.43,NE,44,3.0,7.0,40,0.00,,,0.00,Wunderground v.1.15,2013-05-03 14:38:00,
2013-05-03 10:44:00,58.5,34.2,30.43,SSE,167,3.0,3.0,40,0.00,,,0.00,Wunderground v.1.15,2013-05-03 14:44:00,
2013-05-03 10:49:00,58.5,33.6,30.43,ESE,123,3.0,7.0,39,0.00,,,0.00,Wunderground v.1.15,2013-05-03 14:49:00,
2013-05-03 10:55:00,58.2,33.3,30.43,NNE,16,5.0,9.0,39,0.00,,,0.00,Wunderground v.1.15,2013-05-03 14:55:00,
2013-05-03 11:00:00,57.6,33.4,30.43,North,11,5.0,5.0,40,0.00,,,0.00,Wunderground v.1.15,2013-05-03 15:00:00,
2013-05-03 11:06:00,58.3,34.1,30.43,SE,129,5.0,10.0,40,0.00,,,0.00,Wunderground v.1.15,2013-05-03 15:06:00,
2013-05-03 11:11:00,58.4,33.5,30.42,NNE,29,4.0,4.0,39,0.00,,,0.00,Wunderground v.1.15,2013-05-03 15:11:00,
2013-05-03 11:16:00,58.3,32.8,30.43,NE,53,4.0,9.0,38,0.00,,,0.00,Wunderground v.1.15,2013-05-03 15:16:00,
2013-05-03 11:21:00,58.3,34.1,30.42,East,101,4.0,8.0,40,0.00,,,0.00,Wunderground v.1.15,2013-05-03 15:21:00,
2013-05-03 11:26:00,58.8,34.5,30.42,ENE,67,4.0,9.0,40,0.00,,,0.00,Wunderground v.1.15,2013-05-03 15:26:00,
2013-05-03 11:31:00,58.7,33.8,30.42,ENE,63,3.0,3.0,39,0.00,,,0.00,Wunderground v.1.15,2013-05-03 15:31:00,
2013-05-03 11:37:00,59.3,36.8,30.42,ESE,114,4.0,9.0,43,0.00,,,0.00,Wunderground v.1.15,2013-05-03 15:37:00,
2013-05-03 11:44:00,58.8,36.9,30.42,ESE,119,5.0,6.0,44,0.00,,,0.00,Wunderground v.1.15,2013-05-03 15:44:00,
2013-05-03 11:50:00,58.9,37.6,30.41,South,184,4.0,5.0,45,0.00,,,0.00,Wunderground v.1.15,2013-05-03 15:50:00,
2013-05-03 11:55:00,58.9,37.0,30.41,ESE,112,3.0,5.0,44,0.00,,,0.00,Wunderground v.1.15,2013-05-03 15:55:00,
2013-05-03 12:00:00,59.6,37.1,30.41,West,274,3.0,4.0,43,0.00,,,0.00,Wunderground v.1.15,2013-05-03 16:00:00,
2013-05-03 12:06:00,59.8,37.2,30.40,ESE,112,4.0,8.0,43,0.00,,,0.00,Wunderground v.1.15,2013-05-03 16:06:00,
2013-05-03 12:12:00,59.7,36.6,30.40,NE,53,4.0,4.0,42,0.00,,,0.00,Wunderground v.1.15,2013-05-03 16:12:00,
2013-05-03 12:17:00,60.0,38.0,30.40,SSW,196,3.0,5.0,44,0.00,,,0.00,Wunderground v.1.15,2013-05-03 16:17:00,
2013-05-03 12:22:00,60.0,38.6,30.40,East,82,4.0,8.0,45,0.00,,,0.00,Wunderground v.1.15,2013-05-03 16:22:00,
2013-05-03 12:27:00,60.1,37.5,30.40,SE,133,4.0,8.0,43,0.00,,,0.00,Wunderground v.1.15,2013-05-03 16:27:00,
2013-05-03 12:34:00,59.7,38.9,30.39,SE,131,4.0,7.0,46,0.00,,,0.00,Wunderground v.1.15,2013-05-03 16:34:00,
2013-05-03 12:40:00,58.8,38.6,30.39,SSW,205,6.0,6.0,47,0.00,,,0.00,Wunderground v.1.15,2013-05-03 16:40:00,
2013-05-03 12:45:00,58.7,38.5,30.39,ESE,117,6.0,14.0,47,0.00,,,0.00,Wunderground v.1.15,2013-05-03 16:45:00,
2013-05-03 12:51:00,58.8,38.6,30.39,South,178,6.0,6.0,47,0.00,,,0.00,Wunderground v.1.15,2013-05-03 16:51:00,
2013-05-03 12:56:00,59.7,39.4,30.39,South,188,5.0,6.0,47,0.00,,,0.00,Wunderground v.1.15,2013-05-03 16:56:00,
2013-05-03 13:02:00,60.3,38.9,30.39,SSW,201,4.0,6.0,45,0.00,,,0.00,Wunderground v.1.15,2013-05-03 17:02:00,
2013-05-03 13:08:00,60.4,39.5,30.39,South,178,5.0,7.0,46,0.00,,,0.00,Wunderground v.1.15,2013-05-03 17:08:00,
2013-05-03 13:13:00,60.6,38.6,30.39,WSW,254,5.0,5.0,44,0.00,,,0.00,Wunderground v.1.15,2013-05-03 17:13:00,
2013-05-03 13:18:00,61.2,39.7,30.38,South,172,5.0,8.0,45,0.00,,,0.00,Wunderground v.1.15,2013-05-03 17:18:00,
2013-05-03 13:23:00,60.4,38.4,30.39,WSW,250,6.0,8.0,44,0.00,,,0.00,Wunderground v.1.15,2013-05-03 17:23:00,
2013-05-03 13:28:00,60.5,38.5,30.39,ESE,120,6.0,8.0,44,0.00,,,0.00,Wunderground v.1.15,2013-05-03 17:28:00,
2013-05-03 13:34:00,61.1,40.1,30.38,South,179,4.0,5.0,46,0.00,,,0.00,Wunderground v.1.15,2013-05-03 17:34:00,
2013-05-03 13:39:00,61.7,40.1,30.38,South,180,4.0,6.0,45,0.00,,,0.00,Wunderground v.1.15,2013-05-03 17:39:00,
2013-05-03 13:47:00,61.4,39.3,30.39,South,180,5.0,7.0,44,0.00,,,0.00,Wunderground v.1.15,2013-05-03 17:47:00,
2013-05-03 13:54:00,60.8,39.3,30.38,South,170,5.0,6.0,45,0.00,,,0.00,Wunderground v.1.15,2013-05-03 17:54:00,
2013-05-03 14:00:00,60.9,38.8,30.38,South,170,6.0,6.0,44,0.00,,,0.00,Wunderground v.1.15,2013-05-03 18:00:00,
2013-05-03 14:06:00,60.8,38.7,30.38,SSE,165,5.0,6.0,44,0.00,,,0.00,Wunderground v.1.15,2013-05-03 18:06:00,
2013-05-03 14:11:00,61.4,39.9,30.38,SSE,163,4.0,4.0,45,0.00,,,0.00,Wunderground v.1.15,2013-05-03 18:11:00,
2013-05-03 14:16:00,62.1,40.5,30.38,WSW,255,4.0,9.0,45,0.00,,,0.00,Wunderground v.1.15,2013-05-03 18:16:00,
2013-05-03 14:21:00,61.9,38.5,30.38,SSW,207,4.0,5.0,42,0.00,,,0.00,Wunderground v.1.15,2013-05-03 18:21:00,
2013-05-03 14:26:00,62.0,38.6,30.38,SW,225,5.0,6.0,42,0.00,,,0.00,Wunderground v.1.15,2013-05-03 18:26:00,
2013-05-03 14:32:00,61.9,38.5,30.37,SE,142,4.0,5.0,42,0.00,,,0.00,Wunderground v.1.15,2013-05-03 18:32:00,
2013-05-03 14:53:00,61.6,38.9,30.37,SSE,167,4.0,6.0,43,0.00,,,0.00,Wunderground v.1.15,2013-05-03 18:53:00,
2013-05-03 14:58:00,61.5,38.2,30.37,SE,125,5.0,10.0,42,0.00,,,0.00,Wunderground v.1.15,2013-05-03 18:58:00,
2013-05-03 15:15:00,62.4,39.6,30.36,SSE,168,5.0,7.0,43,0.00,,,0.00,Wunderground v.1.15,2013-05-03 19:15:00,
2013-05-03 15:20:00,62.1,38.1,30.35,South,172,4.0,4.0,41,0.00,,,0.00,Wunderground v.1.15,2013-05-03 19:20:00,
2013-05-03 15:26:00,61.9,38.5,30.35,ESE,122,4.0,8.0,42,0.00,,,0.00,Wunderground v.1.15,2013-05-03 19:26:00,
2013-05-03 15:31:00,62.7,39.9,30.35,ESE,116,4.0,4.0,43,0.00,,,0.00,Wunderground v.1.15,2013-05-03 19:31:00,
2013-05-03 15:37:00,63.0,38.9,30.35,SSE,155,4.0,4.0,41,0.00,,,0.00,Wunderground v.1.15,2013-05-03 19:37:00,
2013-05-03 15:43:00,62.2,38.8,30.35,South,178,5.0,9.0,42,0.00,,,0.00,Wunderground v.1.15,2013-05-03 19:43:00,
2013-05-03 15:48:00,62.1,38.1,30.35,East,94,5.0,9.0,41,0.00,,,0.00,Wunderground v.1.15,2013-05-03 19:48:00,
2013-05-03 15:54:00,62.0,38.6,30.35,SE,142,5.0,11.0,42,0.00,,,0.00,Wunderground v.1.15,2013-05-03 19:54:00,
2013-05-03 15:59:00,61.9,38.5,30.35,SSW,199,6.0,11.0,42,0.00,,,0.00,Wunderground v.1.15,2013-05-03 19:59:00,
2013-05-03 16:05:00,61.8,38.4,30.35,SSW,212,6.0,9.0,42,0.00,,,0.00,Wunderground v.1.15,2013-05-03 20:05:00,
2013-05-03 16:10:00,61.8,39.1,30.34,NE,44,5.0,5.0,43,0.00,,,0.00,Wunderground v.1.15,2013-05-03 20:10:00,
2013-05-03 16:15:00,61.7,38.4,30.34,SSE,167,5.0,10.0,42,0.00,,,0.00,Wunderground v.1.15,2013-05-03 20:15:00,
2013-05-03 16:21:00,62.1,38.7,30.34,ESE,119,4.0,8.0,42,0.00,,,0.00,Wunderground v.1.15,2013-05-03 20:21:00,
2013-05-03 16:27:00,62.2,38.2,30.34,SE,128,4.0,8.0,41,0.00,,,0.00,Wunderground v.1.15,2013-05-03 20:27:00,
2013-05-03 16:32:00,62.1,38.1,30.34,East,99,4.0,5.0,41,0.00,,,0.00,Wunderground v.1.15,2013-05-03 20:32:00,
2013-05-03 16:37:00,61.9,38.5,30.34,ESE,106,4.0,6.0,42,0.00,,,0.00,Wunderground v.1.15,2013-05-03 20:37:00,
2013-05-03 16:42:00,62.0,39.2,30.34,South,171,4.0,6.0,43,0.00,,,0.00,Wunderground v.1.15,2013-05-03 20:42:00,
2013-05-03 16:47:00,62.6,38.6,30.34,South,169,4.0,8.0,41,0.00,,,0.00,Wunderground v.1.15,2013-05-03 20:47:00,
2013-05-03 16:54:00,62.4,38.4,30.33,East,92,4.0,7.0,41,0.00,,,0.00,Wunderground v.1.15,2013-05-03 20:54:00,
2013-05-03 16:59:00,62.5,38.5,30.34,South,188,4.0,7.0,41,0.00,,,0.00,Wunderground v.1.15,2013-05-03 20:59:00,
2013-05-03 17:04:00,62.9,38.8,30.34,East,86,3.0,4.0,41,0.00,,,0.00,Wunderground v.1.15,2013-05-03 21:04:00,
2013-05-03 17:09:00,63.4,38.6,30.33,SE,135,2.0,5.0,40,0.00,,,0.00,Wunderground v.1.15,2013-05-03 21:09:00,
2013-05-03 17:14:00,62.8,38.1,30.33,East,79,4.0,8.0,40,0.00,,,0.00,Wunderground v.1.15,2013-05-03 21:14:00,
2013-05-03 17:19:00,62.5,37.2,30.33,SSE,156,4.0,8.0,39,0.00,,,0.00,Wunderground v.1.15,2013-05-03 21:19:00,
2013-05-03 17:25:00,62.5,37.8,30.33,South,175,4.0,6.0,40,0.00,,,0.00,Wunderground v.1.15,2013-05-03 21:25:00,
2013-05-03 17:30:00,62.4,37.1,30.33,East,97,4.0,4.0,39,0.00,,,0.00,Wunderground v.1.15,2013-05-03 21:30:00,
2013-05-03 17:35:00,62.2,36.9,30.33,South,171,4.0,6.0,39,0.00,,,0.00,Wunderground v.1.15,2013-05-03 21:35:00,
2013-05-03 17:40:00,62.4,37.1,30.33,SE,136,4.0,4.0,39,0.00,,,0.00,Wunderground v.1.15,2013-05-03 21:40:00,
2013-05-03 17:46:00,62.4,37.1,30.33,South,176,3.0,8.0,39,0.00,,,0.00,Wunderground v.1.15,2013-05-03 21:46:00,
2013-05-03 17:51:00,62.1,36.8,30.33,South,179,5.0,12.0,39,0.00,,,0.00,Wunderground v.1.15,2013-05-03 21:51:00,
2013-05-03 17:57:00,61.6,37.0,30.33,SSW,195,5.0,12.0,40,0.00,,,0.00,Wunderground v.1.15,2013-05-03 21:57:00,
2013-05-03 18:04:00,61.3,36.8,30.33,SE,128,5.0,9.0,40,0.00,,,0.00,Wunderground v.1.15,2013-05-03 22:04:00,
2013-05-03 18:09:00,61.3,36.8,30.33,SE,129,5.0,9.0,40,0.00,,,0.00,Wunderground v.1.15,2013-05-03 22:09:00,
2013-05-03 18:14:00,61.1,37.2,30.33,South,180,4.0,6.0,41,0.00,,,0.00,Wunderground v.1.15,2013-05-03 22:14:00,
2013-05-03 18:19:00,60.4,37.8,30.33,SW,214,5.0,8.0,43,0.00,,,0.00,Wunderground v.1.15,2013-05-03 22:19:00,
2013-05-03 18:25:00,60.1,38.7,30.33,SE,144,5.0,8.0,45,0.00,,,0.00,Wunderground v.1.15,2013-05-03 22:25:00,
2013-05-03 18:30:00,60.0,39.1,30.33,SE,137,4.0,4.0,46,0.00,,,0.00,Wunderground v.1.15,2013-05-03 22:30:00,
2013-05-03 18:35:00,59.9,40.7,30.33,SSE,153,3.0,7.0,49,0.00,,,0.00,Wunderground v.1.15,2013-05-03 22:35:00,
2013-05-03 18:40:00,59.5,41.3,30.33,SW,223,4.0,4.0,51,0.00,,,0.00,Wunderground v.1.15,2013-05-03 22:40:00,
2013-05-03 18:45:00,58.8,41.7,30.33,SSE,156,5.0,6.0,53,0.00,,,0.00,Wunderground v.1.15,2013-05-03 22:45:00,
2013-05-03 18:50:00,58.8,42.2,30.34,ESE,121,5.0,5.0,54,0.00,,,0.00,Wunderground v.1.15,2013-05-03 22:50:00,
2013-05-03 18:55:00,58.5,42.4,30.33,South,174,3.0,5.0,55,0.00,,,0.00,Wunderground v.1.15,2013-05-03 22:55:00,
2013-05-03 19:00:00,58.4,41.8,30.34,SSE,165,3.0,3.0,54,0.00,,,0.00,Wunderground v.1.15,2013-05-03 23:00:00,
2013-05-03 19:06:00,58.0,42.4,30.34,South,182,3.0,6.0,56,0.00,,,0.00,Wunderground v.1.15,2013-05-03 23:06:00,
2013-05-03 19:12:00,57.7,42.1,30.34,SSW,192,4.0,4.0,56,0.00,,,0.00,Wunderground v.1.15,2013-05-03 23:12:00,
2013-05-03 19:18:00,57.5,43.3,30.34,ESE,123,3.0,8.0,59,0.00,,,0.00,Wunderground v.1.15,2013-05-03 23:18:00,
2013-05-03 19:24:00,57.2,43.4,30.34,SSE,156,3.0,7.0,60,0.00,,,0.00,Wunderground v.1.15,2013-05-03 23:24:00,
2013-05-03 19:29:00,56.8,43.5,30.34,SSE,159,3.0,7.0,61,0.00,,,0.00,Wunderground v.1.15,2013-05-03 23:29:00,
2013-05-03 19:34:00,56.5,43.6,30.34,SSE,161,2.0,4.0,62,0.00,,,0.00,Wunderground v.1.15,2013-05-03 23:34:00,
2013-05-03 19:39:00,56.2,43.8,30.34,SSE,168,2.0,4.0,63,0.00,,,0.00,Wunderground v.1.15,2013-05-03 23:39:00,
2013-05-03 19:44:00,55.7,43.7,30.34,SSE,167,2.0,3.0,64,0.00,,,0.00,Wunderground v.1.15,2013-05-03 23:44:00,
2013-05-03 19:50:00,55.4,43.8,30.34,SSE,167,2.0,3.0,65,0.00,,,0.00,Wunderground v.1.15,2013-05-03 23:50:00,
2013-05-03 19:56:00,55.2,44.0,30.35,SSE,167,2.0,3.0,66,0.00,,,0.00,Wunderground v.1.15,2013-05-03 23:56:00,
2013-05-03 20:02:00,55.0,44.2,30.35,SSE,156,1.0,2.0,67,0.00,,,0.00,Wunderground v.1.15,2013-05-04 00:02:00,
2013-05-03 20:07:00,54.9,44.1,30.35,SSW,192,1.0,4.0,67,0.00,,,0.00,Wunderground v.1.15,2013-05-04 00:07:00,
2013-05-03 20:12:00,54.7,44.0,30.35,South,171,2.0,6.0,67,0.00,,,0.00,Wunderground v.1.15,2013-05-04 00:12:00,
2013-05-03 20:17:00,54.4,44.1,30.35,South,175,2.0,6.0,68,0.00,,,0.00,Wunderground v.1.15,2013-05-04 00:17:00,
2013-05-03 20:22:00,54.2,44.2,30.35,South,171,3.0,3.0,69,0.00,,,0.00,Wunderground v.1.15,2013-05-04 00:22:00,
2013-05-03 20:27:00,54.0,44.1,30.35,South,176,2.0,3.0,69,0.00,,,0.00,Wunderground v.1.15,2013-05-04 00:27:00,
2013-05-03 20:32:00,53.8,43.9,30.35,South,170,2.0,3.0,69,0.00,,,0.00,Wunderground v.1.15,2013-05-04 00:32:00,
2013-05-03 20:37:00,53.6,44.0,30.35,South,188,2.0,3.0,70,0.00,,,0.00,Wunderground v.1.15,2013-05-04 00:37:00,
2013-05-03 20:43:00,53.4,44.2,30.35,South,176,2.0,2.0,71,0.00,,,0.00,Wunderground v.1.15,2013-05-04 00:43:00,
2013-05-03 20:48:00,53.2,44.0,30.36,South,185,1.0,2.0,71,0.00,,,0.00,Wunderground v.1.15,2013-05-04 00:48:00,
2013-05-03 20:53:00,53.0,44.2,30.36,SSE,166,1.0,3.0,72,0.00,,,0.00,Wunderground v.1.15,2013-05-04 00:53:00,
2013-05-03 20:58:00,52.8,44.0,30.36,South,178,1.0,3.0,72,0.00,,,0.00,Wunderground v.1.15,2013-05-04 00:58:00,
2013-05-03 21:04:00,52.5,43.7,30.36,South,187,2.0,4.0,72,0.00,,,0.00,Wunderground v.1.15,2013-05-04 01:04:00,
2013-05-03 21:09:00,52.3,43.9,30.36,South,178,2.0,4.0,73,0.00,,,0.00,Wunderground v.1.15,2013-05-04 01:09:00,
2013-05-03 21:14:00,52.1,43.7,30.36,South,190,2.0,4.0,73,0.00,,,0.00,Wunderground v.1.15,2013-05-04 01:14:00,
2013-05-03 21:19:00,51.9,43.9,30.36,SSE,167,2.0,4.0,74,0.00,,,0.00,Wunderground v.1.15,2013-05-04 01:19:00,
2013-05-03 21:25:00,51.7,43.7,30.37,South,176,1.0,1.0,74,0.00,,,0.00,Wunderground v.1.15,2013-05-04 01:25:00,
2013-05-03 21:31:00,51.5,43.8,30.37,SSE,157,1.0,2.0,75,0.00,,,0.00,Wunderground v.1.15,2013-05-04 01:31:00,
2013-05-03 21:36:00,51.2,43.9,30.37,SSW,204,1.0,3.0,76,0.00,,,0.00,Wunderground v.1.15,2013-05-04 01:36:00,
2013-05-03 21:41:00,51.1,43.8,30.37,South,190,1.0,3.0,76,0.00,,,0.00,Wunderground v.1.15,2013-05-04 01:41:00,
2013-05-03 21:46:00,50.9,43.9,30.37,SSW,199,1.0,3.0,77,0.00,,,0.00,Wunderground v.1.15,2013-05-04 01:46:00,
2013-05-03 21:51:00,50.8,43.8,30.37,SSW,192,1.0,1.0,77,0.00,,,0.00,Wunderground v.1.15,2013-05-04 01:51:00,
2013-05-03 21:56:00,50.7,44.1,30.37,SSW,192,1.0,1.0,78,0.00,,,0.00,Wunderground v.1.15,2013-05-04 01:56:00,
2013-05-03 22:02:00,50.5,43.9,30.37,SSW,192,0.0,0.0,78,0.00,,,0.00,Wunderground v.1.15,2013-05-04 02:02:00,
2013-05-03 22:07:00,50.5,43.9,30.37,SSW,192,0.0,0.0,78,0.00,,,0.00,Wunderground v.1.15,2013-05-04 02:07:00,
2013-05-03 22:14:00,50.3,44.0,30.37,SSW,192,0.0,0.0,79,0.00,,,0.00,Wunderground v.1.15,2013-05-04 02:14:00,
2013-05-03 22:19:00,50.1,43.8,30.37,SSW,192,0.0,0.0,79,0.00,,,0.00,Wunderground v.1.15,2013-05-04 02:19:00,
2013-05-03 22:24:00,49.7,43.5,30.37,SSW,192,0.0,0.0,79,0.00,,,0.00,Wunderground v.1.15,2013-05-04 02:24:00,
2013-05-03 22:29:00,49.5,43.6,30.36,SSW,192,0.0,0.0,80,0.00,,,0.00,Wunderground v.1.15,2013-05-04 02:29:00,
2013-05-03 22:34:00,49.4,43.8,30.36,SSW,192,0.0,0.0,81,0.00,,,0.00,Wunderground v.1.15,2013-05-04 02:34:00,
2013-05-03 22:39:00,49.3,43.7,30.36,SSW,192,0.0,0.0,81,0.00,,,0.00,Wunderground v.1.15,2013-05-04 02:39:00,
2013-05-03 22:44:00,49.1,43.5,30.36,SSW,192,0.0,0.0,81,0.00,,,0.00,Wunderground v.1.15,2013-05-04 02:44:00,
2013-05-03 22:49:00,49.0,43.7,30.36,SSW,192,0.0,0.0,82,0.00,,,0.00,Wunderground v.1.15,2013-05-04 02:49:00,
2013-05-03 22:54:00,48.8,43.5,30.36,SSW,192,0.0,0.0,82,0.00,,,0.00,Wunderground v.1.15,2013-05-04 02:54:00,
2013-05-03 23:00:00,48.3,43.1,30.37,SSW,192,0.0,0.0,82,0.00,,,0.00,Wunderground v.1.15,2013-05-04 03:00:00,
2013-05-03 23:06:00,47.9,43.3,30.36,SSW,192,0.0,0.0,84,0.00,,,0.00,Wunderground v.1.15,2013-05-04 03:06:00,
2013-05-03 23:11:00,47.7,43.1,30.36,SSW,192,0.0,0.0,84,0.00,,,0.00,Wunderground v.1.15,2013-05-04 03:11:00,
2013-05-03 23:16:00,47.6,43.3,30.36,SSW,192,0.0,0.0,85,0.00,,,0.00,Wunderground v.1.15,2013-05-04 03:16:00,
2013-05-03 23:21:00,47.3,43.0,30.36,SSW,192,0.0,0.0,85,0.00,,,0.00,Wunderground v.1.15,2013-05-04 03:21:00,
2013-05-03 23:26:00,47.2,43.2,30.36,SSW,192,0.0,0.0,86,0.00,,,0.00,Wunderground v.1.15,2013-05-04 03:26:00,
2013-05-03 23:31:00,47.2,43.2,30.36,SSW,192,0.0,0.0,86,0.00,,,0.00,Wunderground v.1.15,2013-05-04 03:31:00,
2013-05-03 23:37:00,47.3,43.3,30.36,SSW,192,0.0,0.0,86,0.00,,,0.00,Wunderground v.1.15,2013-05-04 03:37:00,
2013-05-03 23:44:00,47.3,43.3,30.36,SSW,192,0.0,0.0,86,0.00,,,0.00,Wunderground v.1.15,2013-05-04 03:44:00,
2013-05-03 23:49:00,47.1,43.1,30.36,SSW,192,0.0,0.0,86,0.00,,,0.00,Wunderground v.1.15,2013-05-04 03:49:00,
2013-05-03 23:54:00,46.7,43.0,30.36,SSW,192,0.0,0.0,87,0.00,,,0.00,Wunderground v.1.15,2013-05-04 03:54:00,
2013-05-03 23:59:00,46.3,42.6,30.36,SSW,192,0.0,0.0,87,0.00,,,0.00,Wunderground v.1.15,2013-05-04 03:59:00,